Time,TemperatureF,DewpointF,PressureIn,WindDirection,WindDirectionDegrees,WindSpeedMPH,WindSpeedGustMPH,Humidity,HourlyPrecipIn,Conditions,Clouds,dailyrainin,SoftwareType,DateUTC
2013-03-25 00:02:00,38.0,37.0,-100.00,NNW,335,0.0,3.0,95,0.00,,,-99.99,,2013-03-25 04:02:00,
2013-03-25 00:12:00,38.0,37.0,-100.00,West,265,1.0,2.0,95,0.00,,,-99.99,,2013-03-25 04:12:00,
2013-03-25 00:22:00,38.0,37.0,-100.00,West,260,4.0,5.0,95,0.00,,,-99.99,,2013-03-25 04:22:00,
2013-03-25 00:33:00,38.0,37.0,-100.00,West,280,2.0,6.0,95,0.00,,,-99.99,,2013-03-25 04:33:00,
2013-03-25 00:43:00,38.0,37.0,-100.00,WSW,250,4.0,7.0,95,0.00,,,-99.99,,2013-03-25 04:43:00,
2013-03-25 00:52:00,38.0,37.0,-100.00,SSW,205,5.0,9.0,95,0.00,,,-99.99,,2013-03-25 04:52:00,
2013-03-25 01:03:00,38.0,37.0,-100.00,West,260,6.0,12.0,95,0.00,,,-99.99,,2013-03-25 05:03:00,
2013-03-25 01:12:00,38.0,37.0,-100.00,SSW,210,5.0,9.0,95,0.00,,,-99.99,,2013-03-25 05:12:00,
2013-03-25 01:22:00,39.0,37.0,-100.00,SW,235,1.0,6.0,95,0.00,,,-99.99,,2013-03-25 05:22:00,
2013-03-25 01:32:00,38.0,37.0,-100.00,SW,215,4.0,7.0,95,0.00,,,-99.99,,2013-03-25 05:32:00,
2013-03-25 01:42:00,39.0,37.0,-100.00,SSW,205,4.0,7.0,95,0.00,,,-99.99,,2013-03-25 05:42:00,
2013-03-25 01:52:00,39.0,38.0,-100.00,WSW,250,4.0,7.0,94,0.00,,,-99.99,,2013-03-25 05:52:00,
2013-03-25 02:02:00,39.0,38.0,-100.00,West,265,4.0,7.0,94,0.00,,,-99.99,,2013-03-25 06:02:00,
2013-03-25 02:12:00,39.0,38.0,-100.00,SSW,210,4.0,7.0,94,0.00,,,-99.99,,2013-03-25 06:12:00,
2013-03-25 02:22:00,39.0,38.0,-100.00,SW,230,3.0,7.0,94,0.00,,,-99.99,,2013-03-25 06:22:00,
2013-03-25 02:32:00,39.0,38.0,-100.00,WSW,255,3.0,7.0,94,0.00,,,-99.99,,2013-03-25 06:32:00,
2013-03-25 02:42:00,40.0,38.0,-100.00,WSW,255,6.0,8.0,93,0.00,,,-99.99,,2013-03-25 06:42:00,
2013-03-25 02:52:00,40.0,38.0,-100.00,West,260,4.0,10.0,92,0.00,,,-99.99,,2013-03-25 06:52:00,
2013-03-25 03:02:00,40.0,38.0,-100.00,WSW,250,4.0,9.0,92,0.55,,,-99.99,,2013-03-25 07:02:00,
2013-03-25 03:12:00,40.0,38.0,-100.00,West,260,4.0,10.0,91,0.00,,,-99.99,,2013-03-25 07:12:00,
2013-03-25 03:22:00,40.0,37.0,-100.00,WSW,255,9.0,19.0,90,0.00,,,-99.99,,2013-03-25 07:22:00,
2013-03-25 03:32:00,40.0,35.0,-100.00,WSW,245,12.0,22.0,84,0.00,,,-99.99,,2013-03-25 07:32:00,
2013-03-25 03:42:00,39.0,34.0,-100.00,SW,215,11.0,21.0,80,0.00,,,-99.99,,2013-03-25 07:42:00,
2013-03-25 03:52:00,39.0,33.0,-100.00,WSW,255,8.0,21.0,80,0.00,,,-99.99,,2013-03-25 07:52:00,
2013-03-25 04:03:00,39.0,34.0,-100.00,WSW,255,6.0,14.0,81,0.00,,,-99.99,,2013-03-25 08:03:00,
2013-03-25 04:12:00,38.0,33.0,-100.00,WSW,255,8.0,18.0,81,0.00,,,-99.99,,2013-03-25 08:12:00,
2013-03-25 04:23:00,38.0,33.0,-100.00,West,265,8.0,17.0,84,0.00,,,-99.99,,2013-03-25 08:23:00,
2013-03-25 04:32:00,37.0,32.0,-100.00,SW,235,10.0,19.0,79,0.00,,,-99.99,,2013-03-25 08:32:00,
2013-03-25 04:43:00,37.0,31.0,-100.00,WSW,250,14.0,21.0,77,0.00,,,-99.99,,2013-03-25 08:43:00,
2013-03-25 04:52:00,37.0,31.0,-100.00,SW,235,7.0,22.0,78,0.00,,,-99.99,,2013-03-25 08:52:00,
2013-03-25 05:02:00,36.0,30.0,-100.00,West,260,7.0,16.0,78,0.00,,,-99.99,,2013-03-25 09:02:00,
2013-03-25 05:12:00,37.0,31.0,-100.00,SW,230,6.0,14.0,78,0.00,,,-99.99,,2013-03-25 09:12:00,
2013-03-25 05:22:00,37.0,31.0,-100.00,SW,215,5.0,14.0,79,0.00,,,-99.99,,2013-03-25 09:22:00,
2013-03-25 05:33:00,36.0,31.0,-100.00,SW,230,6.0,12.0,81,0.00,,,-99.99,,2013-03-25 09:33:00,
2013-03-25 05:43:00,36.0,31.0,-100.00,SW,230,4.0,16.0,82,0.00,,,-99.99,,2013-03-25 09:43:00,
2013-03-25 05:52:00,36.0,30.0,-100.00,SSW,205,7.0,15.0,80,0.00,,,-99.99,,2013-03-25 09:52:00,
2013-03-25 06:03:00,36.0,31.0,-100.00,WSW,245,5.0,13.0,82,0.00,,,-99.99,,2013-03-25 10:03:00,
2013-03-25 06:12:00,35.0,31.0,-100.00,SW,225,5.0,16.0,82,0.00,,,-99.99,,2013-03-25 10:12:00,
2013-03-25 06:22:00,35.0,31.0,-100.00,SSW,200,6.0,12.0,82,0.00,,,-99.99,,2013-03-25 10:22:00,
2013-03-25 06:33:00,35.0,31.0,-100.00,SSW,210,8.0,16.0,83,0.00,,,-99.99,,2013-03-25 10:33:00,
2013-03-25 06:42:00,35.0,31.0,-100.00,WSW,250,4.0,17.0,84,0.00,,,-99.99,,2013-03-25 10:42:00,
2013-03-25 06:53:00,35.0,31.0,-100.00,SSW,200,6.0,14.0,84,0.55,,,-99.99,,2013-03-25 10:53:00,
2013-03-25 07:03:00,35.0,31.0,-100.00,SW,225,6.0,13.0,85,0.55,,,-99.99,,2013-03-25 11:03:00,
2013-03-25 07:12:00,34.0,31.0,-100.00,WSW,245,4.0,7.0,86,0.55,,,-99.99,,2013-03-25 11:12:00,
2013-03-25 07:23:00,34.0,31.0,-100.00,SW,215,4.0,9.0,88,0.55,,,-99.99,,2013-03-25 11:23:00,
2013-03-25 07:32:00,34.0,31.0,-100.00,SSW,205,4.0,9.0,89,1.69,,,-99.99,,2013-03-25 11:32:00,
2013-03-25 07:42:00,34.0,31.0,-100.00,SSW,200,4.0,7.0,89,1.10,,,-99.99,,2013-03-25 11:42:00,
2013-03-25 07:52:00,33.0,31.0,-100.00,SSW,200,3.0,11.0,90,0.55,,,-99.99,,2013-03-25 11:52:00,
2013-03-25 08:03:00,33.0,31.0,-100.00,SSW,210,5.0,9.0,90,1.10,,,-99.99,,2013-03-25 12:03:00,
2013-03-25 08:13:00,34.0,31.0,-100.00,SW,220,3.0,7.0,90,0.00,,,-99.99,,2013-03-25 12:13:00,
2013-03-25 08:23:00,34.0,31.0,-100.00,SSW,205,7.0,12.0,90,0.55,,,-99.99,,2013-03-25 12:23:00,
2013-03-25 08:32:00,34.0,31.0,-100.00,WSW,240,4.0,11.0,89,0.00,,,-99.99,,2013-03-25 12:32:00,
2013-03-25 08:42:00,34.0,31.0,-100.00,WSW,250,6.0,11.0,89,0.00,,,-99.99,,2013-03-25 12:42:00,
2013-03-25 08:53:00,34.0,31.0,-100.00,West,270,6.0,10.0,89,6.22,,,-99.99,,2013-03-25 12:53:00,
2013-03-25 09:03:00,34.0,31.0,-100.00,West,270,7.0,12.0,89,0.00,,,-99.99,,2013-03-25 13:03:00,
2013-03-25 09:13:00,34.0,32.0,-100.00,SW,235,7.0,12.0,89,0.55,,,-99.99,,2013-03-25 13:13:00,
2013-03-25 09:22:00,34.0,32.0,-100.00,WSW,245,6.0,12.0,89,0.00,,,-99.99,,2013-03-25 13:22:00,
2013-03-25 09:32:00,35.0,32.0,-100.00,West,265,6.0,11.0,89,0.00,,,-99.99,,2013-03-25 13:32:00,
2013-03-25 09:42:00,34.0,32.0,-100.00,SW,225,6.0,10.0,90,1.10,,,-99.99,,2013-03-25 13:42:00,
2013-03-25 09:52:00,34.0,31.0,-100.00,WSW,245,4.0,11.0,91,1.10,,,-99.99,,2013-03-25 13:52:00,
2013-03-25 10:03:00,34.0,32.0,-100.00,WSW,250,7.0,10.0,91,0.00,,,-99.99,,2013-03-25 14:03:00,
2013-03-25 10:12:00,34.0,32.0,-100.00,WSW,250,7.0,12.0,91,0.00,,,-99.99,,2013-03-25 14:12:00,
2013-03-25 10:22:00,34.0,32.0,-100.00,West,260,7.0,15.0,90,0.00,,,-99.99,,2013-03-25 14:22:00,
2013-03-25 10:32:00,34.0,31.0,-100.00,WSW,245,7.0,16.0,88,1.10,,,-99.99,,2013-03-25 14:32:00,
2013-03-25 10:42:00,34.0,31.0,-100.00,WSW,255,8.0,17.0,88,0.00,,,-99.99,,2013-03-25 14:42:00,
2013-03-25 10:52:00,33.0,31.0,-100.00,West,270,7.0,14.0,89,0.55,,,-99.99,,2013-03-25 14:52:00,
2013-03-25 11:03:00,34.0,31.0,-100.00,WSW,255,6.0,11.0,89,0.00,,,-99.99,,2013-03-25 15:03:00,
2013-03-25 11:13:00,34.0,31.0,-100.00,WSW,255,9.0,16.0,87,0.00,,,-99.99,,2013-03-25 15:13:00,
2013-03-25 11:23:00,34.0,30.0,-100.00,WSW,245,11.0,18.0,86,0.00,,,-99.99,,2013-03-25 15:23:00,
2013-03-25 11:33:00,34.0,31.0,-100.00,WSW,240,8.0,16.0,86,0.00,,,-99.99,,2013-03-25 15:33:00,
2013-03-25 11:42:00,35.0,30.0,-100.00,WSW,250,6.0,15.0,83,0.00,,,-99.99,,2013-03-25 15:42:00,
2013-03-25 11:53:00,35.0,30.0,-100.00,WSW,250,8.0,16.0,82,0.00,,,-99.99,,2013-03-25 15:53:00,
2013-03-25 12:03:00,35.0,29.0,-100.00,WSW,250,9.0,19.0,79,0.00,,,-99.99,,2013-03-25 16:03:00,
2013-03-25 12:12:00,35.0,29.0,-100.00,West,275,7.0,19.0,76,0.00,,,-99.99,,2013-03-25 16:12:00,
2013-03-25 12:23:00,36.0,29.0,-100.00,West,275,7.0,14.0,76,0.00,,,-99.99,,2013-03-25 16:23:00,
2013-03-25 12:33:00,36.0,29.0,-100.00,WSW,240,7.0,14.0,74,0.00,,,-99.99,,2013-03-25 16:33:00,
2013-03-25 12:43:00,36.0,29.0,-100.00,West,270,6.0,12.0,74,0.00,,,-99.99,,2013-03-25 16:43:00,
2013-03-25 12:52:00,36.0,28.0,-100.00,West,260,11.0,19.0,73,0.00,,,-99.99,,2013-03-25 16:52:00,
2013-03-25 13:03:00,36.0,29.0,-100.00,West,260,6.0,14.0,74,0.00,,,-99.99,,2013-03-25 17:03:00,
2013-03-25 13:12:00,36.0,27.0,-100.00,WSW,255,9.0,16.0,70,0.00,,,-99.99,,2013-03-25 17:12:00,
2013-03-25 13:23:00,36.0,28.0,-100.00,WSW,245,11.0,19.0,73,0.00,,,-99.99,,2013-03-25 17:23:00,
2013-03-25 13:33:00,36.0,28.0,-100.00,West,260,11.0,17.0,71,0.00,,,-99.99,,2013-03-25 17:33:00,
2013-03-25 13:42:00,36.0,28.0,-100.00,WNW,285,7.0,17.0,72,0.55,,,-99.99,,2013-03-25 17:42:00,
2013-03-25 13:52:00,35.0,28.0,-100.00,West,265,11.0,19.0,72,0.00,,,-99.99,,2013-03-25 17:52:00,
2013-03-25 14:03:00,36.0,28.0,-100.00,WNW,300,7.0,17.0,72,0.00,,,-99.99,,2013-03-25 18:03:00,
2013-03-25 14:12:00,36.0,29.0,-100.00,WNW,300,9.0,14.0,75,0.00,,,-99.99,,2013-03-25 18:12:00,
2013-03-25 14:23:00,36.0,28.0,-100.00,WSW,255,9.0,16.0,73,0.00,,,-99.99,,2013-03-25 18:23:00,
2013-03-25 14:33:00,36.0,29.0,-100.00,West,275,7.0,15.0,74,0.00,,,-99.99,,2013-03-25 18:33:00,
2013-03-25 14:42:00,36.0,28.0,-100.00,West,280,8.0,14.0,72,0.00,,,-99.99,,2013-03-25 18:42:00,
2013-03-25 14:52:00,37.0,28.0,-100.00,WSW,245,9.0,16.0,69,0.00,,,-99.99,,2013-03-25 18:52:00,
2013-03-25 15:03:00,37.0,28.0,-100.00,WSW,240,12.0,24.0,69,0.00,,,-99.99,,2013-03-25 19:03:00,
2013-03-25 15:13:00,37.0,27.0,-100.00,WSW,240,12.0,21.0,68,0.00,,,-99.99,,2013-03-25 19:13:00,
2013-03-25 15:23:00,37.0,28.0,-100.00,West,275,9.0,20.0,69,0.00,,,-99.99,,2013-03-25 19:23:00,
2013-03-25 15:33:00,36.0,27.0,-100.00,West,265,12.0,19.0,69,0.00,,,-99.99,,2013-03-25 19:33:00,
2013-03-25 15:42:00,37.0,28.0,-100.00,West,265,9.0,21.0,69,0.00,,,-99.99,,2013-03-25 19:42:00,
2013-03-25 15:52:00,37.0,27.0,-100.00,West,260,9.0,18.0,68,0.00,,,-99.99,,2013-03-25 19:52:00,
2013-03-25 16:02:00,37.0,29.0,-100.00,West,265,7.0,13.0,71,0.00,,,-99.99,,2013-03-25 20:02:00,
2013-03-25 16:12:00,37.0,28.0,-100.00,West,260,9.0,16.0,71,0.00,,,-99.99,,2013-03-25 20:12:00,
2013-03-25 16:22:00,37.0,29.0,-100.00,WSW,255,6.0,11.0,72,0.00,,,-99.99,,2013-03-25 20:22:00,
2013-03-25 16:32:00,37.0,29.0,-100.00,West,275,7.0,16.0,72,0.55,,,-99.99,,2013-03-25 20:32:00,
2013-03-25 16:42:00,37.0,29.0,-100.00,WSW,255,6.0,12.0,73,0.00,,,-99.99,,2013-03-25 20:42:00,
2013-03-25 16:52:00,37.0,29.0,-100.00,West,260,8.0,12.0,72,0.00,,,-99.99,,2013-03-25 20:52:00,
2013-03-25 17:03:00,37.0,29.0,-100.00,WSW,255,8.0,16.0,74,0.00,,,-99.99,,2013-03-25 21:03:00,
2013-03-25 17:12:00,36.0,29.0,-100.00,WSW,245,8.0,16.0,74,0.00,,,-99.99,,2013-03-25 21:12:00,
2013-03-25 17:22:00,37.0,29.0,-100.00,West,280,7.0,14.0,74,0.00,,,-99.99,,2013-03-25 21:22:00,
2013-03-25 17:33:00,37.0,30.0,-100.00,WNW,295,6.0,15.0,75,0.00,,,-99.99,,2013-03-25 21:33:00,
2013-03-25 17:43:00,37.0,30.0,-100.00,WSW,245,6.0,11.0,75,0.00,,,-99.99,,2013-03-25 21:43:00,
2013-03-25 17:52:00,37.0,30.0,-100.00,West,280,4.0,14.0,77,0.00,,,-99.99,,2013-03-25 21:52:00,
2013-03-25 18:03:00,36.0,30.0,-100.00,WSW,255,8.0,16.0,78,0.00,,,-99.99,,2013-03-25 22:03:00,
2013-03-25 18:12:00,36.0,30.0,-100.00,NW,310,6.0,11.0,78,0.55,,,-99.99,,2013-03-25 22:12:00,
2013-03-25 18:23:00,36.0,31.0,-100.00,West,280,5.0,11.0,80,0.55,,,-99.99,,2013-03-25 22:23:00,
2013-03-25 18:33:00,36.0,31.0,-100.00,WSW,240,6.0,14.0,81,0.55,,,-99.99,,2013-03-25 22:33:00,
2013-03-25 18:42:00,36.0,31.0,-100.00,West,265,7.0,12.0,81,0.00,,,-99.99,,2013-03-25 22:42:00,
2013-03-25 18:52:00,36.0,31.0,-100.00,WSW,250,4.0,10.0,82,0.00,,,-99.99,,2013-03-25 22:52:00,
2013-03-25 19:03:00,36.0,31.0,-100.00,West,260,6.0,12.0,83,0.00,,,-99.99,,2013-03-25 23:03:00,
2013-03-25 19:12:00,36.0,31.0,-100.00,WNW,290,6.0,16.0,82,0.00,,,-99.99,,2013-03-25 23:12:00,
2013-03-25 19:23:00,36.0,31.0,-100.00,West,275,6.0,12.0,83,0.00,,,-99.99,,2013-03-25 23:23:00,
2013-03-25 19:32:00,36.0,31.0,-100.00,WSW,250,7.0,12.0,82,1.69,,,-99.99,,2013-03-25 23:32:00,
2013-03-25 19:43:00,36.0,31.0,-100.00,WSW,255,5.0,13.0,82,0.00,,,-99.99,,2013-03-25 23:43:00,
2013-03-25 19:52:00,35.0,31.0,-100.00,WSW,250,7.0,12.0,83,0.55,,,-99.99,,2013-03-25 23:52:00,
2013-03-25 20:02:00,35.0,31.0,-100.00,West,260,4.0,14.0,83,0.00,,,-99.99,,2013-03-26 00:02:00,
2013-03-25 20:12:00,35.0,31.0,-100.00,WSW,240,7.0,16.0,83,0.00,,,-99.99,,2013-03-26 00:12:00,
2013-03-25 20:22:00,35.0,31.0,-100.00,WNW,285,5.0,13.0,83,0.55,,,-99.99,,2013-03-26 00:22:00,
2013-03-25 20:32:00,35.0,31.0,-100.00,West,280,6.0,11.0,84,0.00,,,-99.99,,2013-03-26 00:32:00,
2013-03-25 20:42:00,35.0,31.0,-100.00,West,270,6.0,12.0,83,0.55,,,-99.99,,2013-03-26 00:42:00,
2013-03-25 20:52:00,35.0,31.0,-100.00,West,265,4.0,11.0,84,0.00,,,-99.99,,2013-03-26 00:52:00,
2013-03-25 21:02:00,35.0,31.0,-100.00,West,265,4.0,9.0,84,0.55,,,-99.99,,2013-03-26 01:02:00,
2013-03-25 21:12:00,35.0,31.0,-100.00,WNW,300,3.0,9.0,85,0.55,,,-99.99,,2013-03-26 01:12:00,
2013-03-25 21:22:00,35.0,31.0,-100.00,WNW,300,4.0,11.0,85,0.55,,,-99.99,,2013-03-26 01:22:00,
2013-03-25 21:32:00,35.0,31.0,-100.00,West,270,4.0,12.0,85,0.00,,,-99.99,,2013-03-26 01:32:00,
2013-03-25 21:42:00,35.0,31.0,-100.00,NW,305,4.0,11.0,85,0.55,,,-99.99,,2013-03-26 01:42:00,
2013-03-25 21:52:00,35.0,31.0,-100.00,North,355,1.0,9.0,85,0.00,,,-99.99,,2013-03-26 01:52:00,
2013-03-25 22:02:00,35.0,31.0,-100.00,NW,310,2.0,9.0,85,0.00,,,-99.99,,2013-03-26 02:02:00,
2013-03-25 22:12:00,35.0,31.0,-100.00,NW,305,4.0,9.0,84,0.55,,,-99.99,,2013-03-26 02:12:00,
2013-03-25 22:22:00,35.0,30.0,-100.00,WNW,300,7.0,12.0,82,0.00,,,-99.99,,2013-03-26 02:22:00,
2013-03-25 22:32:00,35.0,30.0,-100.00,West,265,4.0,14.0,82,0.55,,,-99.99,,2013-03-26 02:32:00,
2013-03-25 22:42:00,35.0,30.0,-100.00,West,270,3.0,12.0,82,0.00,,,-99.99,,2013-03-26 02:42:00,
2013-03-25 22:52:00,35.0,30.0,-100.00,NW,305,3.0,9.0,82,0.55,,,-99.99,,2013-03-26 02:52:00,
2013-03-25 23:02:00,35.0,30.0,-100.00,NW,315,2.0,10.0,82,0.55,,,-99.99,,2013-03-26 03:02:00,
2013-03-25 23:12:00,35.0,30.0,-100.00,WSW,240,4.0,9.0,82,0.55,,,-99.99,,2013-03-26 03:12:00,
2013-03-25 23:22:00,35.0,30.0,-100.00,NW,305,6.0,11.0,82,0.00,,,-99.99,,2013-03-26 03:22:00,
2013-03-25 23:34:00,35.0,31.0,-100.00,WNW,290,4.0,9.0,82,1.10,,,-99.99,,2013-03-26 03:34:00,
2013-03-25 23:42:00,35.0,30.0,-100.00,WNW,295,4.0,10.0,83,0.00,,,-99.99,,2013-03-26 03:42:00,
2013-03-25 23:52:00,35.0,31.0,-100.00,West,260,4.0,9.0,83,0.55,,,-99.99,,2013-03-26 03:52:00,